Wind_Speed
18 20 20 19 19 19 20 20 20 19 18 17 16 15 15 14 13 12 12 12 12 11 11 12 13 14 14 14 13 14 15 15 16 16 17 18 19 19 20 21 20 20 21
19 20 20 20 19 19 20 22 23 23 22 21 19 17 17 16 15 14 13 13 12 12 12 13 13 15 15 15 15 15 16 17 17 17 18 19 20 20 21 22 22 22 22
22 22 21 20 20 20 21 22 23 23 23 23 22 20 19 18 16 15 14 14 14 14 14 14 15 15 16 16 16 17 17 17 17 18 18 19 20 20 21 22 23 23 24
23 23 22 20 19 19 21 22 22 22 22 22 22 21 20 19 17 16 15 15 16 15 15 16 16 17 17 18 18 18 18 19 19 19 20 20 21 22 22 23 24 24 24
23 23 23 22 20 20 19 19 20 21 22 22 22 21 20 19 18 16 15 16 16 16 16 17 16 16 16 17 17 18 19 20 21 21 22 23 24 25 24 25 25 26 26
23 22 22 22 22 22 21 20 21 21 22 22 22 21 20 20 19 17 16 16 16 16 17 17 17 17 17 17 18 18 20 20 21 22 22 24 26 25 25 26 26 26 26
23 22 22 23 23 23 24 24 24 23 22 22 22 22 21 21 21 19 17 17 16 17 17 17 17 18 18 17 17 17 18 20 21 22 23 24 25 24 24 24 24 24 24
25 23 25 25 25 26 26 26 26 23 22 22 22 22 22 22 22 20 18 17 17 17 17 17 17 17 16 16 17 20 22 24 26 28 28 29 28 27 26 25 25 25 26
26 25 28 28 28 28 27 26 26 23 21 20 21 21 21 22 22 21 19 18 18 17 17 17 17 17 18 19 21 22 23 25 27 28 29 31 31 29 27 26 26 26 25
28 28 30 31 30 29 27 27 26 24 21 19 19 20 21 21 22 23 22 21 19 19 19 19 20 20 21 22 23 23 24 24 24 23 23 25 27 27 26 26 27 27 27
32 31 30 31 31 30 28 27 26 24 22 20 19 19 20 22 23 24 25 24 22 22 23 23 24 25 25 25 25 25 25 25 24 21 22 21 21 23 24 25 27 28 28
35 34 33 32 31 31 29 27 27 26 24 23 21 21 20 21 22 24 25 26 26 26 26 27 29 30 30 29 28 27 27 27 26 22 23 22 21 21 22 24 26 27 29
36 37 36 35 33 32 31 29 29 28 27 25 25 24 24 23 23 23 25 27 28 28 29 31 32 33 34 33 32 30 30 30 29 27 27 26 24 24 25 26 28 30 32
36 36 38 37 36 35 33 31 30 30 30 29 28 27 27 27 26 25 24 25 27 29 30 32 34 35 36 36 35 34 33 33 33 31 31 30 29 29 28 29 31 33 34
34 35 38 39 38 37 36 33 32 32 32 32 31 31 30 30 28 27 26 26 26 28 30 31 33 34 35 37 37 37 36 35 35 34 33 33 32 32 31 32 32 34 35
33 34 36 39 39 38 37 35 34 34 34 34 34 33 32 32 30 28 28 28 29 30 31 32 34 34 35 36 37 38 38 37 36 35 35 34 34 34 34 34 34 35 36
31 33 34 37 39 38 38 37 36 36 36 36 35 34 33 32 31 30 29 30 31 32 33 34 35 36 36 36 36 36 36 36 36 36 34 34 34 34 35 36 36 37 39
33 34 33 33 35 37 38 38 37 37 37 37 36 35 34 34 33 32 31 33 34 35 35 36 36 36 36 36 35 35 35 35 35 34 33 34 34 35 36 37 39 40 42
35 35 34 32 31 34 38 39 39 39 38 38 38 37 36 36 35 34 34 35 36 37 37 37 38 37 37 36 35 35 34 33 33 34 35 36 37 38 38 40 42 44 45
38 38 37 34 30 31 35 37 39 41 42 41 39 38 38 38 37 36 35 36 37 39 39 39 39 38 37 37 37 36 35 35 36 38 39 40 41 42 44 44 46 47 48
41 42 41 39 34 33 33 35 38 40 42 42 41 40 40 39 38 37 37 37 39 40 40 41 40 39 39 39 39 39 39 41 42 43 43 44 45 45 47 48 49 50 51
41 43 44 44 41 38 35 36 38 39 40 41 41 41 40 39 39 39 38 39 40 41 41 41 40 39 40 42 43 44 45 45 47 47 46 46 47 47 49 50 52 54 54
43 44 45 46 46 44 40 40 39 38 39 40 40 40 40 40 39 39 38 40 41 41 41 41 40 40 41 44 46 48 49 50 49 49 49 49 49 50 51 53 55 56 57
47 46 46 47 48 48 45 43 41 40 41 41 41 39 39 39 38 39 40 40 42 42 41 41 41 42 43 45 47 49 50 50 51 50 49 50 50 51 53 55 56 58 60
52 50 48 48 48 48 48 47 44 42 42 43 42 39 39 38 38 38 39 40 41 41 41 41 42 43 45 47 49 50 51 50 50 50 49 49 50 52 53 55 56 59 62
58 55 52 50 48 47 49 49 47 44 44 44 43 41 40 39 39 38 39 40 40 40 40 41 43 45 47 49 49 50 49 49 50 50 50 50 50 52 54 57 60 62 63
Wind_Direction
251 249 248 250 252 252 252 255 258 261 264 265 265 266 269 268 265 264 269 272 266 257 254 258 262 265 267 269 272 274 276 275 274 272 271 269 268 269 271 273 275 278 282
252 250 248 245 246 248 249 251 254 258 261 263 265 267 269 266 261 258 261 263 261 258 256 260 266 270 273 275 277 279 280 279 277 278 277 274 272 272 274 275 276 276 279
254 252 252 248 248 249 250 252 252 254 256 259 261 264 268 267 259 255 257 258 260 261 262 265 269 273 276 278 279 281 283 283 283 283 282 281 279 277 278 278 278 277 279
256 256 257 256 253 250 252 254 255 256 256 257 258 259 262 262 256 254 256 257 258 263 268 270 272 274 276 279 280 281 282 281 280 278 277 277 277 276 276 277 279 280 280
257 259 261 262 259 256 254 255 257 257 258 259 258 257 259 257 253 253 256 257 259 263 267 271 273 274 276 278 280 281 281 281 280 278 277 276 275 275 275 276 278 279 280
255 258 261 261 263 267 267 266 265 263 262 261 258 257 257 255 252 252 254 256 259 262 265 268 270 271 273 275 278 280 281 282 282 282 282 281 278 278 277 277 278 279 282
253 257 262 263 265 272 273 272 273 275 269 262 257 255 255 254 250 249 251 254 256 259 263 264 265 266 268 271 276 280 281 281 280 280 280 279 278 277 277 277 278 280 282
252 255 262 264 267 272 273 274 274 274 269 262 258 257 256 255 251 249 250 252 255 259 261 261 260 261 263 269 277 282 284 285 284 282 280 278 276 276 276 278 279 280 282
253 252 258 261 264 269 273 275 275 274 269 264 262 262 262 260 256 253 251 251 253 255 255 254 254 258 265 274 282 287 291 293 292 289 285 279 277 277 277 278 278 280 282
255 255 259 263 264 266 269 273 275 274 269 265 265 267 268 267 264 260 257 254 253 251 249 251 256 261 269 277 284 290 295 297 297 297 292 285 279 276 276 276 278 281 283
254 254 257 263 267 267 268 271 272 270 268 266 267 271 273 273 271 266 262 260 258 256 254 256 259 263 269 275 282 287 293 295 293 295 292 290 286 280 277 277 280 282 284
255 256 256 259 264 267 268 269 269 267 266 267 269 270 274 278 278 274 268 263 262 261 261 262 264 266 269 273 279 284 288 292 290 289 286 287 287 284 283 284 286 286 287
257 258 258 259 260 264 265 266 265 264 264 265 269 273 276 278 280 280 277 271 267 266 266 267 268 270 271 272 275 278 282 286 288 287 283 283 283 284 284 287 290 292 293
259 259 260 260 260 261 262 262 262 262 263 265 268 274 278 280 281 281 281 279 277 276 275 275 275 274 274 273 274 275 277 281 284 287 284 279 279 281 284 288 292 296 297
260 258 258 258 258 259 260 260 260 260 261 265 270 274 279 283 284 282 281 281 281 282 284 285 284 280 277 275 274 274 276 279 282 286 286 281 278 280 284 288 293 298 299
260 259 256 257 257 258 259 259 258 259 260 264 269 274 279 283 284 283 281 281 282 284 286 287 287 285 282 278 276 275 277 279 282 285 286 283 280 281 283 287 292 298 302
259 261 260 258 257 258 259 260 259 258 260 263 267 272 277 280 282 283 282 281 282 284 286 287 287 286 285 284 282 280 279 280 283 285 285 283 282 284 286 288 292 297 300
258 260 261 261 260 258 259 260 261 260 260 262 265 269 273 276 279 281 282 282 282 283 285 286 287 286 285 286 286 284 282 283 286 287 285 285 286 289 291 292 293 296 297
256 258 260 261 261 258 257 259 261 263 263 264 265 268 271 274 276 279 281 282 283 283 284 285 286 284 283 284 285 283 282 284 287 287 287 289 291 292 293 294 295 295 295
254 255 257 258 259 258 257 259 261 263 264 265 267 269 271 271 274 277 281 283 284 285 284 284 285 283 280 281 282 282 283 285 287 288 289 291 292 294 294 294 294 294 294
251 253 254 256 255 256 256 258 261 263 265 267 269 271 272 272 273 277 281 284 285 286 284 283 285 283 280 280 281 282 284 286 287 288 290 291 292 293 293 293 293 293 293
250 251 251 253 253 253 254 255 257 261 266 270 271 273 274 274 274 277 283 285 286 286 283 282 284 283 281 280 281 282 285 288 289 289 289 290 291 291 292 292 293 293 292
251 250 250 250 252 251 251 253 256 261 265 270 272 273 273 274 275 278 282 283 285 285 284 283 284 284 283 282 283 284 286 288 289 289 289 290 292 294 295 295 295 295 294
252 251 250 249 250 251 251 252 255 258 262 266 269 272 273 274 275 277 280 282 284 285 284 283 283 285 285 285 285 286 288 290 291 292 293 294 295 296 296 297 296 296 296
252 250 249 249 250 249 249 251 253 255 258 262 267 271 272 273 275 278 280 283 285 286 285 284 285 287 287 287 288 288 289 290 291 292 293 293 295 295 296 295 295 296 296
250 249 248 249 250 249 248 249 251 253 255 259 264 267 270 272 275 278 280 283 285 286 286 287 288 289 290 290 290 291 291 291 292 292 292 293 294 295 296 297 297 296 295
Height
5852 5853 5854 5855 5855 5857 5858 5859 5860 5861 5861 5861 5861 5860 5860 5860 5860 5861 5861 5861 5861 5861 5861 5862 5862 5862 5862 5862 5862 5862 5863 5863 5863 5864 5864 5864 5864 5864 5863 5863 5863 5863 5863
5850 5850 5851 5852 5852 5853 5854 5855 5856 5857 5858 5858 5858 5858 5858 5858 5858 5858 5858 5859 5859 5859 5859 5860 5860 5860 5860 5860 5860 5860 5860 5860 5860 5861 5861 5861 5861 5860 5860 5860 5860 5860 5859
5847 5847 5848 5849 5850 5851 5851 5852 5852 5853 5854 5855 5856 5856 5856 5855 5855 5855 5856 5856 5856 5857 5857 5857 5857 5858 5858 5858 5858 5858 5858 5858 5858 5858 5858 5858 5857 5857 5856 5856 5856 5856 5856
5843 5844 5846 5847 5848 5848 5848 5849 5849 5850 5851 5852 5852 5853 5853 5853 5853 5853 5853 5853 5853 5854 5855 5855 5855 5855 5855 5856 5856 5855 5855 5855 5855 5855 5855 5855 5854 5852 5852 5852 5852 5852 5852
5840 5841 5842 5844 5845 5845 5846 5846 5846 5847 5848 5848 5849 5849 5849 5849 5849 5849 5849 5850 5850 5851 5852 5852 5852 5852 5852 5853 5853 5853 5852 5852 5852 5851 5851 5851 5849 5848 5848 5848 5848 5848 5848
5836 5837 5838 5840 5841 5841 5842 5843 5843 5843 5844 5844 5845 5845 5845 5845 5846 5846 5846 5846 5847 5848 5848 5849 5849 5849 5850 5850 5850 5850 5849 5849 5849 5848 5847 5847 5845 5844 5844 5843 5843 5843 5843
5832 5834 5834 5835 5836 5837 5837 5838 5839 5840 5840 5840 5840 5841 5841 5842 5842 5842 5842 5843 5843 5844 5845 5845 5845 5846 5846 5846 5847 5847 5847 5846 5845 5844 5843 5842 5841 5840 5839 5839 5839 5838 5838
5828 5831 5830 5832 5832 5833 5833 5834 5835 5836 5836 5836 5836 5837 5837 5838 5838 5838 5839 5839 5840 5841 5841 5842 5842 5843 5843 5843 5844 5844 5843 5842 5841 5840 5839 5837 5836 5836 5835 5835 5834 5834 5833
5824 5827 5827 5828 5829 5829 5830 5830 5831 5832 5832 5832 5832 5833 5833 5834 5834 5835 5835 5836 5836 5837 5838 5839 5840 5840 5841 5841 5841 5840 5839 5837 5836 5834 5833 5831 5831 5830 5830 5830 5829 5829 5828
5821 5823 5823 5824 5825 5826 5827 5827 5828 5828 5829 5829 5829 5829 5830 5830 5831 5831 5832 5833 5833 5834 5835 5836 5837 5837 5837 5838 5837 5836 5835 5833 5831 5830 5828 5826 5826 5825 5825 5824 5824 5824 5824
5815 5817 5819 5820 5821 5822 5823 5823 5824 5824 5825 5825 5825 5826 5827 5827 5827 5828 5828 5829 5830 5831 5831 5832 5833 5833 5833 5833 5833 5832 5830 5829 5828 5827 5824 5822 5821 5821 5820 5819 5819 5819 5818
5809 5811 5813 5815 5817 5817 5819 5819 5819 5820 5820 5821 5822 5823 5823 5824 5824 5824 5825 5825 5826 5826 5827 5828 5828 5829 5829 5828 5828 5827 5825 5824 5824 5823 5820 5818 5818 5817 5816 5815 5814 5814 5813
5803 5805 5806 5808 5811 5812 5813 5814 5815 5815 5816 5817 5818 5818 5819 5819 5820 5820 5820 5821 5821 5821 5822 5822 5823 5823 5823 5822 5822 5821 5820 5819 5818 5818 5815 5814 5813 5812 5811 5810 5809 5808 5807
5796 5799 5800 5801 5804 5805 5807 5809 5810 5811 5811 5812 5813 5814 5814 5815 5815 5816 5816 5816 5815 5815 5816 5816 5816 5816 5816 5816 5815 5815 5814 5813 5812 5811 5809 5808 5807 5806 5805 5804 5803 5801 5800
5789 5792 5793 5794 5797 5798 5800 5802 5804 5805 5806 5807 5808 5809 5809 5810 5810 5811 5811 5810 5810 5810 5810 5810 5809 5809 5808 5808 5808 5807 5807 5806 5805 5805 5802 5801 5800 5799 5798 5797 5795 5794 5792
5782 5784 5786 5787 5790 5791 5793 5795 5797 5799 5800 5801 5802 5803 5804 5804 5805 5805 5805 5805 5804 5804 5804 5804 5803 5802 5801 5800 5800 5800 5799 5798 5798 5797 5795 5793 5792 5791 5790 5789 5787 5786 5784
5776 5777 5779 5781 5783 5785 5786 5788 5790 5792 5793 5795 5796 5797 5798 5799 5799 5799 5799 5799 5798 5797 5797 5796 5795 5794 5793 5792 5792 5792 5791 5790 5790 5789 5787 5786 5784 5783 5782 5780 5778 5777 5775
5769 5770 5772 5774 5776 5778 5780 5782 5783 5785 5787 5788 5790 5791 5792 5792 5793 5793 5793 5792 5791 5790 5789 5788 5787 5787 5786 5786 5785 5784 5783 5782 5781 5780 5779 5778 5776 5774 5773 5771 5769 5767 5765
5762 5763 5765 5767 5770 5772 5773 5775 5777 5779 5780 5782 5783 5784 5785 5786 5786 5786 5786 5785 5784 5783 5782 5781 5780 5780 5779 5779 5778 5777 5776 5775 5773 5772 5771 5769 5767 5765 5763 5761 5759 5756 5754
5755 5756 5757 5760 5763 5765 5766 5768 5770 5771 5773 5775 5777 5778 5778 5779 5779 5779 5779 5778 5777 5776 5775 5774 5772 5772 5771 5771 5770 5769 5768 5766 5765 5763 5761 5759 5757 5755 5752 5750 5748 5746 5743
5746 5748 5750 5752 5755 5757 5760 5761 5762 5763 5765 5767 5770 5771 5771 5772 5772 5772 5771 5770 5769 5768 5767 5766 5765 5763 5763 5762 5762 5761 5759 5757 5755 5754 5751 5748 5747 5744 5741 5739 5736 5733 5730
5737 5739 5741 5743 5747 5749 5752 5754 5754 5756 5757 5760 5761 5763 5763 5764 5764 5765 5765 5764 5762 5761 5760 5758 5757 5755 5754 5753 5753 5751 5750 5749 5746 5743 5740 5737 5734 5732 5729 5726 5723 5720 5717
5728 5729 5731 5734 5737 5740 5743 5744 5747 5749 5751 5752 5753 5754 5755 5756 5757 5757 5757 5756 5755 5753 5752 5750 5749 5747 5746 5744 5743 5741 5739 5737 5735 5733 5729 5725 5722 5719 5716 5713 5709 5705 5701
5717 5719 5721 5724 5726 5730 5733 5736 5739 5742 5743 5744 5744 5746 5747 5748 5749 5749 5749 5748 5747 5745 5744 5742 5740 5739 5738 5736 5733 5731 5728 5725 5723 5721 5718 5713 5710 5706 5702 5698 5694 5689 5684
5703 5707 5710 5712 5715 5720 5724 5727 5730 5733 5735 5736 5736 5738 5739 5740 5741 5741 5740 5740 5739 5737 5735 5733 5731 5729 5728 5726 5723 5720 5717 5714 5711 5709 5707 5703 5698 5694 5690 5685 5681 5676 5671
5689 5693 5697 5700 5704 5709 5713 5717 5721 5724 5726 5727 5728 5730 5731 5732 5733 5733 5733 5732 5730 5728 5726 5724 5722 5720 5718 5715 5712 5708 5705 5702 5699 5696 5694 5691 5687 5682 5677 5671 5666 5661 5656